This demonstration page uses our WeatherBlox Daily Observations layout. Learn more.

Left ArrowRight Arrow

44.8408, -93.29828

Hourly Observations for August 10, 2021

Temp ( °F °C ) Dew Point ( °F °C ) Humidity (%) Winds ( mph kmh ) Pressure ( in mb ) Visibility ( mi km ) Precip ( " mm )
12:53 am 00:53 Clear 74 23.3 68 20 82 82 SSE 8 13 29.82 1010 10 16 0.00 0.00
1:53 am 01:53 Clear 74 23.3 68 20 82 82 SSE 10 17 29.79 1009 10 16 0.00 0.00
2:53 am 02:53 Cloudy 75 23.9 68 20 79 79 SSE 10 17 29.77 1008 10 16 0.00 0.00
3:53 am 03:53 Mostly Cloudy 74 23.3 67 19.4 79 79 SE 3 6 29.75 1008 10 16 0.00 0.00
4:18 am 04:18 Cloudy 74 23.3 67 19.4 79 79 SE 8 13 29.74 1007 10 16 0.00 0.00
4:53 am 04:53 Mostly Cloudy 74 23.3 67 19.4 79 79 SE 7 11 29.74 1007 10 16 0.00 0.00
5:53 am 05:53 Cloudy 74 23.3 67 19.4 79 79 SSE 6 9 29.74 1007 10 16 0.00 0.00
6:53 am 06:53 Cloudy 75 23.9 68 20 79 79 S 5 7 29.75 1008 10 16 0.00 0.00
7:53 am 07:53 Cloudy 75 23.9 69 20.6 82 82 VRB 3 6 29.75 1007 10 16 0.00 0.00
8:00 am 08:00 Cloudy 76 24.4 69 20.6 79 79 SSW 5 7 29.73 1007 10 16 0.00 0.00
8:53 am 08:53 Cloudy 77 25 71 21.7 82 82 WSW 6 9 29.76 1008 10 16 0.00 0.00
9:53 am 09:53 Cloudy with Light Rain 76 24.4 71 21.7 85 85 Calm 29.78 1008 9 14 0.00 0.00
10:24 am 10:24 Cloudy 76 24.4 72 22.2 88 88 N 10 17 29.70 1006 10 16 0.00 0.00
10:53 am 10:53 Cloudy 78 25.6 71 21.7 79 79 VRB 5 7 29.74 1007 9 14 0.00 0.00
11:53 am 11:53 Mostly Cloudy 80 26.7 71 21.7 74 74 WSW 7 11 29.80 1009 10 16 0.00 0.00
12:53 pm 12:53 Partly Cloudy 85 29.4 61 16.1 45 45 VRB 7 11 29.79 1009 10 16 0.00 0.00
1:53 pm 13:53 Partly Cloudy 85 29.4 56 13.3 37 37 W 10 17 29.78 1009 10 16 0.00 0.00
2:53 pm 14:53 Partly Cloudy 87 30.6 58 14.4 37 37 W 9 15 29.76 1008 10 16 0.00 0.00
3:53 pm 15:53 Partly Cloudy 86 30 60 15.6 42 42 WSW 10 17 29.75 1007 10 16 0.00 0.00
4:53 pm 16:53 Partly Cloudy 87 30.6 58 14.4 37 37 W 12 19 29.73 1007 10 16 0.00 0.00
5:53 pm 17:53 Mostly Sunny 86 30 59 15 40 40 WSW 12 19 29.72 1007 10 16 0.00 0.00
6:53 pm 18:53 Mostly Sunny 85 29.4 58 14.4 40 40 W 12 19 29.74 1007 10 16 0.00 0.00
7:53 pm 19:53 Sunny 83 28.3 57 13.9 41 41 WSW 8 13 29.75 1007 10 16 0.00 0.00
8:53 pm 20:53 Clear 80 26.7 59 15 49 49 WSW 7 11 29.75 1007 10 16 0.00 0.00
9:53 pm 21:53 Clear 78 25.6 61 16.1 56 56 SW 8 13 29.75 1008 10 16 0.00 0.00
10:53 pm 22:53 Clear 76 24.4 62 16.7 62 62 SSW 3 6 29.75 1007 10 16 0.00 0.00
11:53 pm 23:53 Clear 74 23.3 63 17.2 69 69 S 5 7 29.74 1007 10 16 0.00 0.00

Powered by AerisWeather